Showing default

IRNSS 1C, 40269

Orbit data source: Space-Track

IRNSS 1C, 40269 is a payload satellite owned by ISRO (IN) in GEO that was launched on Wed, 15 Oct 2014 UTC via a PSLV-XL launch vehicle from the Sirharikota (SRI). Payload-class satellites include a variety of spacecraft equipped with specific instruments for various scientific and technological missions. These include communications satellites like Starlink; space stations such as the ISS; scientific satellites like the Hubble; Earth observation satellites from companies like Planet Labs, Umbra, and HawkEye 360; GPS; miniature CubeSats for education and research; and military/defense satellites.

Not visible in the next 10 days
Identifier
40269, 2014-061A
Orbit
GEO
Country
Flag of ININ / IND
Related business
Manufacturer
ISRO SAC/Banga
Mission
Partially operational Civil Navigation
Bus & Motor
I1K, ISRO LAM
Mass
1,425 kg wet, 600 kg dry
Launch date (UTC)
2014-10-15 (11 years ago)
Launch vehicle
PSLV-XL
Launch site
Sirharikota (SRI)
Object type
Payload
Rocket body
Debris
Shape & HBR
Box + 2 Pan, 5.0 m
Radar Cross Section
6.961 m²

Expand to show TLE details & history
Last TLE update: 13 hours ago

TLE from 13 hours ago
0 IRNSS 1C
1 40269U 14061A   26071.08894409 -.00000159  00000-0  00000-0 0  9997
2 40269   6.2687  90.8159 0020022 356.7055 197.1368  1.00268621 41715
Epoch: 2026-03-12T02:08Z
TLE epoch observation values (Epoch: 2026-03-12T02:08:04.769Z)
Latitude
-1.47458°
Longitude
82.76248°
Altitude
35,867.593 km
Speed
3.069 km/s
True Right ascension
18h 58m 06s
True Declination
-1° 28' 23"
Sunlit
Object was in daylight at epoch
Visualization orbit readout
Latitude
Unknown
Longitude
Unknown
Altitude
Unknown
Speed
Unknown
Apparent Right ascension
Unknown
Apparent Declination
Unknown
Sunlit
N/A
Visualization observer readout
Local Sidereal Time
19:51:17
Azimuth
Unknown
Elevation
Unknown
Doppler factor
Unknown
Orbital elements
Apogee altitude
35,872.96 km
Perigee altitude
35,704.108 km
Semi-major axis
42,166.671 km
Eccentricity
0.002
Inclination
6.2687°
RAAN
90.8159°
Arg. of periapsis
356.7055°
True anomaly
197.06936°
Mean anomaly
197.1368°
Eccentric anomaly
197.10306°
Mean motion
0.25066 °/min
Orbital period
1,436.19 mins
BSTAR
0
Loading maneuver chart data...
Computing Atmospheric mass density...
Loading historical data...
Loading historical data...
Loading historical data...
Loading historical data...
Loading historical data...
Loading historical data...
Loading historical data...
Other satellites on launch #61 in the year 2014 (2014-10-15 UTC)

Documentation

Showing up to 5 results
|